Camdenton, MO

2:31 PM CDT on September 20, 2017 (GMT -0500)
Camdenton

Weather History for KH21 - October, 2011

Change the Weather History Date:

Thursday, October 20, 2011

  Actual Average (KAIZ) Record (KAIZ)
Temperature  
Mean Temperature 45 °F -  
Max Temperature 53 °F 65 °F 87 °F (2003)
Min Temperature 37 °F 43 °F 28 °F (1999)
Degree Days  
Heating Degree Days 20    
Moisture  
Dew Point 32 °F    
Average Humidity 60    
Maximum Humidity 81    
Minimum Humidity 38    
Precipitation  
Precipitation 0.00 in - - ()
Sea Level Pressure  
Sea Level Pressure 29.99 in    
Wind  
Wind Speed 10 mph ()    
Max Wind Speed 17 mph    
Max Gust Speed 26 mph    
Visibility 10.0 miles    
Events      
Averages and records for this station are not official NWS values.
T = Trace of Precipitation, MM = Missing Value Source: Averaged Metar Reports

Daily Weather History Graph

Daily Weather History Graph

Search for Another Location

Airport or City:

Trip Planner

Search our weather history database for the weather conditions in past years. The results will help you decide how hot, cold, wet, or windy it might be!

Date:

Astronomy

Oct. 20, 2011 Rise Set
Actual Time 7:23 AM CDT 6:26 PM CDT
Civil Twilight 6:57 AM CDT 6:53 PM CDT
Nautical Twilight 6:26 AM CDT 7:23 PM CDT
Astronomical Twilight 5:56 AM CDT 7:54 PM CDT
Moon 12:16 AM CDT 2:29 PM CDT
Length of Visible Light 11h 56m
Length of Day
11h 02m
Last Quarter, 44% of the Moon is Illuminated
Oct 20
Last Quarter
Oct 26
New
Nov 2
First Quarter
Nov 10
Full
Nov 18
Last Quarter

Hourly Weather History & Observations

Time (CDT) Temp. Windchill Dew Point Humidity Pressure Visibility Wind Dir Wind Speed Gust Speed Precip Events Conditions
12:15 AM 44.6 °F 38.8 °F 32.0 °F 61% 29.93 in 10.0 mi WNW 11.5 mph 17.3 mph N/A   Overcast
12:35 AM 44.6 °F 39.7 °F 32.0 °F 61% 29.93 in 10.0 mi WNW 9.2 mph 19.6 mph N/A   Overcast
12:55 AM 44.6 °F 38.8 °F 32.0 °F 61% 29.93 in 10.0 mi WNW 11.5 mph 17.3 mph N/A   Overcast
1:15 AM 44.6 °F 39.7 °F 32.0 °F 61% 29.92 in 10.0 mi WNW 9.2 mph 17.3 mph N/A   Overcast
1:35 AM 44.6 °F 39.7 °F 32.0 °F 61% 29.92 in 10.0 mi WNW 9.2 mph - N/A   Overcast
1:55 AM 44.6 °F 38.8 °F 32.0 °F 61% 29.93 in 10.0 mi West 11.5 mph - N/A   Overcast
2:15 AM 44.6 °F 38.4 °F 32.0 °F 61% 29.93 in 10.0 mi WNW 12.7 mph 18.4 mph N/A   Overcast
2:35 AM 44.6 °F 39.2 °F 32.0 °F 61% 29.92 in 10.0 mi WNW 10.4 mph 19.6 mph N/A   Overcast
3:15 AM 44.6 °F 38.4 °F 32.0 °F 61% 29.92 in 10.0 mi WNW 12.7 mph 17.3 mph N/A   Overcast
3:35 AM 44.6 °F 37.4 °F 32.0 °F 61% 29.92 in 10.0 mi WNW 16.1 mph 21.9 mph N/A   Overcast
3:55 AM 44.6 °F 37.8 °F 32.0 °F 61% 29.93 in 10.0 mi WNW 15.0 mph 21.9 mph N/A   Overcast
4:15 AM 42.8 °F 36.6 °F 32.0 °F 66% 29.93 in 10.0 mi WNW 11.5 mph 20.7 mph N/A   Mostly Cloudy
4:35 AM 42.8 °F 37.0 °F 30.2 °F 61% 29.93 in 10.0 mi WNW 10.4 mph - N/A   Scattered Clouds
5:35 AM 41.0 °F 35.8 °F 32.0 °F 70% 29.95 in 10.0 mi West 8.1 mph - N/A   Clear
5:55 AM 39.2 °F 33.6 °F 32.0 °F 75% 29.95 in 10.0 mi West 8.1 mph - N/A   Clear
6:15 AM 41.0 °F 35.2 °F 32.0 °F 70% 29.95 in 10.0 mi West 9.2 mph - N/A   Clear
6:35 AM 39.2 °F 32.5 °F 32.0 °F 75% 29.95 in 10.0 mi West 10.4 mph - N/A   Clear
6:55 AM 37.4 °F 31.4 °F 32.0 °F 81% 29.95 in 10.0 mi West 8.1 mph - N/A   Clear
7:15 AM 37.4 °F 30.8 °F 32.0 °F 81% 29.95 in 10.0 mi West 9.2 mph - N/A   Clear
7:35 AM 37.4 °F 31.4 °F 32.0 °F 81% 29.96 in 10.0 mi West 8.1 mph - N/A   Clear
8:15 AM 37.4 °F 31.4 °F 32.0 °F 81% 29.97 in 10.0 mi West 8.1 mph - N/A   Clear
8:35 AM 37.4 °F 30.3 °F 32.0 °F 81% 29.99 in 10.0 mi West 10.4 mph - N/A   Clear
8:55 AM 41.0 °F 34.7 °F 32.0 °F 70% 29.99 in 10.0 mi West 10.4 mph - N/A   Clear
9:15 AM 41.0 °F 34.3 °F 32.0 °F 70% 30.00 in 10.0 mi West 11.5 mph 18.4 mph N/A   Clear
9:35 AM 42.8 °F 35.4 °F 32.0 °F 66% 30.00 in 10.0 mi West 15.0 mph - N/A   Clear
9:55 AM 42.8 °F 37.0 °F 32.0 °F 66% 30.01 in 10.0 mi West 10.4 mph - N/A   Clear
10:15 AM 42.8 °F 36.2 °F 32.0 °F 66% 30.01 in 10.0 mi West 12.7 mph 17.3 mph N/A   Clear
10:35 AM 44.6 °F 39.7 °F 32.0 °F 61% 30.02 in 10.0 mi WNW 9.2 mph 18.4 mph N/A   Clear
10:55 AM 46.4 °F 40.1 °F 32.0 °F 57% 30.02 in 10.0 mi West 15.0 mph 25.3 mph N/A   Scattered Clouds
11:15 AM 46.4 °F 40.4 °F 32.0 °F 57% 30.02 in 10.0 mi West 13.8 mph - N/A   Mostly Cloudy
11:35 AM 46.4 °F 40.1 °F 32.0 °F 57% 30.02 in 10.0 mi WNW 15.0 mph 24.2 mph N/A   Mostly Cloudy
11:55 AM 48.2 °F - 32.0 °F 54% 30.02 in 10.0 mi WNW 17.3 mph 26.5 mph N/A   Mostly Cloudy
12:15 PM 48.2 °F - 32.0 °F 54% 30.02 in 10.0 mi WNW 15.0 mph 19.6 mph N/A   Mostly Cloudy
12:35 PM 50.0 °F - 32.0 °F 50% 30.02 in 10.0 mi WNW 15.0 mph - N/A   Scattered Clouds
12:55 PM 50.0 °F - 32.0 °F 50% 30.01 in 10.0 mi WNW 13.8 mph 20.7 mph N/A   Clear
1:15 PM 50.0 °F - 30.2 °F 47% 30.00 in 10.0 mi WSW 6.9 mph 21.9 mph N/A   Clear
1:55 PM 51.8 °F - 30.2 °F 44% 29.99 in 10.0 mi WNW 12.7 mph 23.0 mph N/A   Clear
2:15 PM 51.8 °F - 32.0 °F 47% 29.99 in 10.0 mi West 15.0 mph 21.9 mph N/A   Clear
2:35 PM 51.8 °F - 32.0 °F 47% 29.99 in 10.0 mi WSW 16.1 mph 19.6 mph N/A   Clear
2:55 PM 53.6 °F - 30.2 °F 41% 29.97 in 10.0 mi West 11.5 mph - N/A   Clear
3:15 PM 53.6 °F - 30.2 °F 41% 29.98 in 10.0 mi WSW 13.8 mph 19.6 mph N/A   Clear
3:35 PM 53.6 °F - 30.2 °F 41% 29.99 in 10.0 mi West 12.7 mph 19.6 mph N/A   Clear
3:55 PM 53.6 °F - 30.2 °F 41% 29.99 in 10.0 mi West 15.0 mph 20.7 mph N/A   Clear
4:15 PM 53.6 °F - 28.4 °F 38% 29.99 in 10.0 mi WSW 13.8 mph 19.6 mph N/A   Clear
4:35 PM 53.6 °F - 30.2 °F 41% 29.99 in 10.0 mi WNW 12.7 mph 21.9 mph N/A   Clear
4:55 PM 53.6 °F - 30.2 °F 41% 29.99 in 10.0 mi West 16.1 mph 20.7 mph N/A   Clear
5:15 PM 53.6 °F - 30.2 °F 41% 29.99 in 10.0 mi West 12.7 mph 18.4 mph N/A   Clear
5:35 PM 51.8 °F - 30.2 °F 44% 30.00 in 10.0 mi West 8.1 mph 17.3 mph N/A   Clear
5:55 PM 51.8 °F - 30.2 °F 44% 30.00 in 10.0 mi West 10.4 mph - N/A   Clear
6:15 PM 50.0 °F - 30.2 °F 47% 30.01 in 10.0 mi West 4.6 mph - N/A   Clear
6:35 PM 50.0 °F - 30.2 °F 47% 30.02 in 10.0 mi West 5.8 mph - N/A   Clear
7:15 PM 46.4 °F 44.3 °F 32.0 °F 57% 30.03 in 10.0 mi WSW 4.6 mph - N/A   Clear
7:35 PM 46.4 °F 44.3 °F 32.0 °F 57% 30.03 in 10.0 mi West 4.6 mph - N/A   Clear
8:15 PM 44.6 °F 42.2 °F 32.0 °F 61% 30.05 in 10.0 mi WSW 4.6 mph - N/A   Clear
8:35 PM 42.8 °F 40.1 °F 32.0 °F 66% 30.05 in 10.0 mi SW 4.6 mph - N/A   Clear
9:15 PM 42.8 °F 40.1 °F 32.0 °F 66% 30.06 in 10.0 mi West 4.6 mph - N/A   Clear
9:35 PM 41.0 °F 38.0 °F 32.0 °F 70% 30.07 in 10.0 mi WSW 4.6 mph - N/A   Clear
9:55 PM 41.0 °F 37.1 °F 32.0 °F 70% 30.08 in 10.0 mi SW 5.8 mph - N/A   Clear
10:15 PM 41.0 °F 37.1 °F 32.0 °F 70% 30.09 in 10.0 mi WSW 5.8 mph - N/A   Clear
10:35 PM 41.0 °F 37.1 °F 32.0 °F 70% 30.09 in 10.0 mi SW 5.8 mph - N/A   Clear
10:55 PM 41.0 °F 37.1 °F 32.0 °F 70% 30.09 in 10.0 mi WSW 5.8 mph - N/A   Clear
11:15 PM 39.2 °F 34.2 °F 32.0 °F 75% 30.09 in 10.0 mi WSW 6.9 mph - N/A   Clear
11:35 PM 39.2 °F 34.2 °F 32.0 °F 75% 30.10 in 10.0 mi WSW 6.9 mph - N/A   Clear
11:55 PM 39.2 °F 34.2 °F 32.0 °F 75% 30.10 in 10.0 mi WSW 6.9 mph - N/A   Clear